GW1039 Weather Reports


time (UTC)temp
C
wind
direction
speed
KPH
gust
KPH
rain 1hr
cm
rain 24hr
cm
rain mn
cm
humidity
%
barometer
mb
20260506034248 17 270 4.8 11.3 0.00 0.51 0.51 45 1014.1
20260506033744 17 330 1.6 4.8 0.00 0.51 0.51 45 1013.9
20260506033241 17 334 3.2 3.2 0.00 0.51 0.51 44 1013.7
20260506032738 17 322 1.6 3.2 0.00 0.51 0.51 44 1013.6
20260506032235 17 309 3.2 4.8 0.00 0.51 0.51 42 1013.7
20260506031732 17 301 1.6 4.8 0.00 0.51 0.51 43 1013.7
20260506031229 18 299 4.8 8.0 0.00 0.51 0.51 41 1013.5
20260506030728 18 284 3.2 9.7 0.00 0.51 0.51 41 1013.4
20260506030225 18 289 1.6 8.0 0.00 0.51 0.51 41 1013.5
20260506025721 18 307 3.2 9.7 0.00 0.51 0.51 40 1013.3
20260506025218 18 286 8.0 11.3 0.00 0.51 0.51 39 1013.2
20260506024715 18 257 8.0 12.9 0.00 0.51 0.51 39 1013.2
20260506024211 18 291 6.4 12.9 0.00 0.51 0.51 39 1013.2
20260506023708 18 310 6.4 14.5 0.00 0.51 0.51 38 1012.9
20260506023205 18 272 8.0 12.9 0.00 0.51 0.51 37 1012.7
20260506022702 18 268 9.7 12.9 0.00 0.51 0.51 37 1012.7
20260506022159 18 290 4.8 14.5 0.00 0.51 0.51 36 1012.8
20260506021657 18 278 4.8 11.3 0.00 0.51 0.51 36 1012.6
20260506021154 18 302 4.8 17.7 0.00 0.51 0.51 35 1012.4
20260506020651 19 275 8.0 14.5 0.00 0.51 0.51 34 1012.4
20260506020149 19 275 11.3 20.9 0.00 0.51 0.51 33 1012.4
20260506015646 19 272 11.3 16.1 0.00 0.51 0.51 34 1012.2
20260506015144 20 287 16.1 22.5 0.00 0.51 0.51 34 1012.2
20260506014641 20 291 11.3 20.9 0.00 0.51 0.51 35 1012.2
20260506014136 20 246 9.7 20.9 0.00 0.51 0.51 35 1012.2
20260506013635 20 251 9.7 20.9 0.00 0.51 0.51 35 1012.3
20260506013131 20 262 12.9 22.5 0.00 0.51 0.51 35 1012.3
20260506012627 20 273 11.3 24.1 0.00 0.51 0.51 35 1012.0
20260506012124 20 287 4.8 20.9 0.00 0.51 0.51 36 1012.3
20260506011622 20 241 17.7 25.7 0.00 0.51 0.51 36 1012.1
20260506011118 20 262 16.1 27.4 0.00 0.51 0.51 35 1012.0
20260506010617 21 286 11.3 24.1 0.00 0.51 0.51 34 1011.7
20260506010113 21 262 8.0 16.1 0.00 0.51 0.51 34 1011.6
20260506005611 21 308 20.9 27.4 0.00 0.51 0.51 33 1011.7
20260506005107 21 281 9.7 20.9 0.00 0.51 0.51 33 1011.9
20260506004604 21 264 14.5 22.5 0.00 0.51 0.51 31 1011.7
20260506004100 21 291 17.7 24.1 0.00 0.51 0.51 31 1011.4
20260506003557 21 278 9.7 14.5 0.00 0.51 0.51 31 1011.5
20260506003053 21 289 11.3 20.9 0.00 0.51 0.51 31 1011.7
20260506002549 21 301 14.5 22.5 0.00 0.51 0.51 31 1011.4
20260506002045 21 279 12.9 17.7 0.00 0.51 0.51 31 1011.3
20260506001541 22 299 11.3 14.5 0.00 0.51 0.51 30 1011.4
20260506001039 22 239 11.3 16.1 0.00 0.51 0.51 28 1011.4
20260506000536 21 237 16.1 22.5 0.00 0.51 0.51 28 1011.4
20260506000034 22 235 8.0 16.1 0.00 0.51 0.51 30 1011.3
20260505235531 22 244 17.7 22.5 0.00 0.51 0.51 30 1011.3
20260505235028 21 278 9.7 12.9 0.00 0.51 0.51 29 1011.2
20260505234525 22 275 11.3 16.1 0.00 0.51 0.51 30 1011.3
20260505234022 22 251 6.4 17.7 0.00 0.51 0.51 29 1011.1
20260505233519 22 237 12.9 24.1 0.00 0.51 0.51 28 1011.2
20260505233017 23 271 16.1 22.5 0.00 0.51 0.51 28 1011.3
20260505232514 22 267 9.7 22.5 0.00 0.51 0.51 27 1011.2
20260505232012 23 294 22.5 29.0 0.00 0.51 0.51 28 1011.2
20260505231508 22 247 8.0 17.7 0.00 0.51 0.51 32 1011.3
20260505231007 22 214 11.3 17.7 0.00 0.51 0.51 32 1011.1
20260505230504 21 244 9.7 22.5 0.00 0.51 0.51 34 1011.4
20260505230000 21 281 4.8 14.5 0.00 0.51 0.51 34 1011.3
20260505225457 21 229 8.0 22.5 0.00 0.51 0.51 34 1011.5
20260505224953 21 266 11.3 20.9 0.00 0.51 0.51 34 1011.4
20260505224450 21 250 11.3 17.7 0.00 0.51 0.51 35 1011.5
20260505223948 21 209 8.0 17.7 0.00 0.51 0.51 35 1011.5
20260505223444 21 272 12.9 29.0 0.00 0.51 0.51 34 1011.5
20260505222941 21 273 8.0 16.1 0.00 0.51 0.51 35 1011.7
20260505222437 21 264 6.4 17.7 0.00 0.51 0.51 34 1011.6
20260505221933 21 248 8.0 16.1 0.00 0.51 0.51 34 1011.6
20260505221431 21 276 3.2 12.9 0.00 0.51 0.51 34 1011.7
20260505220928 22 285 11.3 17.7 0.00 0.51 0.51 33 1011.9
20260505220425 22 251 8.0 14.5 0.00 0.51 0.51 33 1011.7
20260505215922 22 274 9.7 16.1 0.00 0.51 0.51 33 1012.0
20260505215420 22 235 16.1 24.1 0.00 0.51 0.51 32 1012.0
20260505214918 22 344 11.3 25.7 0.00 0.51 0.51 33 1012.3
20260505214415 22 245 14.5 17.7 0.00 0.51 0.51 31 1012.1
20260505213912 22 242 17.7 20.9 0.00 0.51 0.51 31 1012.2
20260505213410 22 242 16.1 24.1 0.00 0.51 0.51 31 1012.3
20260505212906 22 236 11.3 25.7 0.00 0.51 0.51 30 1012.4
20260505212403 23 207 11.3 25.7 0.00 0.51 0.51 31 1012.4
20260505211859 22 279 14.5 32.2 0.00 0.51 0.51 30 1012.3
20260505211357 22 243 14.5 35.4 0.00 0.51 0.51 31 1012.3
20260505210853 22 259 17.7 33.8 0.00 0.51 0.51 30 1012.5
20260505210350 22 267 14.5 25.7 0.00 0.51 0.51 31 1012.6
20260505205847 22 238 11.3 25.7 0.00 0.51 0.51 32 1012.6
20260505205345 22 239 12.9 29.0 0.00 0.51 0.51 35 1012.6
20260505204842 22 262 16.1 22.5 0.00 0.51 0.51 35 1012.6
20260505204340 22 192 17.7 24.1 0.00 0.51 0.51 35 1012.6
20260505203837 21 350 8.0 16.1 0.00 0.51 0.51 34 1012.6
20260505203333 21 261 12.9 22.5 0.00 0.51 0.51 35 1012.8
20260505202830 22 256 17.7 25.7 0.00 0.51 0.51 35 1012.7
20260505202326 21 279 12.9 20.9 0.00 0.51 0.51 38 1012.7
20260505201823 22 203 12.9 32.2 0.00 0.51 0.51 39 1012.9
20260505201320 23 305 11.3 24.1 0.00 0.51 0.51 40 1012.8
20260505200818 22 244 16.1 20.9 0.00 0.51 0.51 41 1012.9
20260505200315 21 244 9.7 17.7 0.00 0.51 0.51 48 1012.8
20260505195810 20 315 8.0 12.9 0.00 0.51 0.51 49 1012.6
20260505195308 20 312 3.2 9.7 0.00 0.51 0.51 53 1013.1
20260505194805 20 297 1.6 9.7 0.00 0.51 0.51 54 1013.1
20260505194302 20 302 6.4 11.3 0.00 0.51 0.51 54 1013.1
20260505193757 20 296 6.4 9.7 0.00 0.51 0.51 54 1012.9
20260505193255 20 1 4.8 12.9 0.00 0.51 0.51 53 1012.9
20260505192753 19 323 3.2 9.7 0.00 0.51 0.51 55 1013.2
20260505192250 20 280 6.4 9.7 0.00 0.51 0.51 55 1013.3
20260505191748 20 311 6.4 12.9 0.00 0.51 0.51 54 1013.2
20260505191247 20 246 12.9 14.5 0.00 0.51 0.51 54 1013.3
20260505190742 19 223 6.4 9.7 0.00 0.51 0.51 55 1013.3
20260505190237 20 284 3.2 8.0 0.00 0.51 0.51 56 1013.2
20260505185734 19 261 3.2 8.0 0.00 0.51 0.51 56 1013.5
20260505185231 18 2 1.6 8.0 0.00 0.51 0.51 58 1013.8
20260505184726 18 238 4.8 8.0 0.00 0.51 0.51 59 1013.8
20260505184224 18 184 9.7 11.3 0.00 0.51 0.51 59 1013.8
20260505183720 19 250 8.0 9.7 0.00 0.51 0.51 58 1013.9
20260505183218 18 301 3.2 9.7 0.00 0.51 0.51 59 1013.7
20260505182714 18 205 9.7 12.9 0.00 0.51 0.51 59 1013.8
20260505182212 18 295 4.8 8.0 0.00 0.51 0.51 62 1014.0
20260505181708 17 294 9.7 9.7 0.00 0.51 0.51 62 1014.3
20260505181206 18 274 8.0 11.3 0.00 0.51 0.51 62 1014.3
20260505180702 18 344 0.0 3.2 0.00 0.51 0.51 61 1014.0
20260505180159 18 12 4.8 4.8 0.00 0.51 0.51 61 1014.1
20260505175654 18 276 4.8 11.3 0.00 0.51 0.51 61 1014.3
20260505175151 18 234 4.8 9.7 0.00 0.51 0.51 64 1014.1
20260505174648 17 284 4.8 4.8 0.00 0.51 0.51 64 1014.1
20260505174144 17 293 3.2 4.8 0.00 0.51 0.51 64 1014.1
20260505173641 17 311 1.6 8.0 0.00 0.51 0.51 66 1014.1
20260505173138 18 270 12.9 16.1 0.00 0.51 0.51 63 1014.1
20260505172635 18 36 4.8 4.8 0.00 0.51 0.51 62 1014.1
20260505172132 18 301 4.8 4.8 0.00 0.51 0.51 62 1014.4
20260505171626 18 351 0.0 1.6 0.00 0.51 0.51 63 1014.4
20260505171124 18 15 1.6 3.2 0.00 0.51 0.51 62 1014.5
20260505170621 17 331 0.0 3.2 0.00 0.51 0.51 62 1014.3
20260505170117 17 347 0.0 4.8 0.00 0.51 0.51 63 1014.3
20260505165612 17 233 6.4 8.0 0.00 0.51 0.51 64 1014.3
20260505165108 17 277 4.8 4.8 0.00 0.51 0.51 62 1014.3
20260505164604 17 289 4.8 8.0 0.00 0.51 0.51 64 1014.3
20260505164102 17 337 0.0 4.8 0.00 0.51 0.51 70 1014.3
20260505163600 17 330 1.6 3.2 0.00 0.51 0.51 70 1014.4
20260505163057 17 302 1.6 3.2 0.00 0.51 0.51 72 1014.0
20260505162555 16 325 1.6 3.2 0.00 0.51 0.51 76 1014.5
20260505162052 16 305 1.6 3.2 0.00 0.51 0.51 74 1014.4
20260505161549 16 302 3.2 3.2 0.00 0.51 0.51 75 1014.4
20260505161047 16 324 1.6 3.2 0.00 0.51 0.51 76 1014.4
20260505160544 16 273 4.8 4.8 0.00 0.51 0.51 75 1014.5
20260505153021 16 289 1.6 3.2 0.00 0.51 0.51 75 1014.0
20260505152518 16 285 1.6 3.2 0.00 0.51 0.51 78 1014.0
20260505152013 16 330 1.6 1.6 0.00 0.51 0.51 78 1014.0
20260505151508 15 311 0.0 3.2 0.00 0.51 0.51 78 1013.9
20260505151006 15 288 3.2 3.2 0.00 0.51 0.51 78 1014.1
20260505150502 15 300 3.2 4.8 0.00 0.51 0.51 78 1014.0
20260505140427 15 0 3.2 3.2 0.00 0.51 0.51 80 1013.6
20260505124841 13 27 1.6 1.6 0.00 0.51 0.51 92 1012.9
20260505124338 13 49 1.6 3.2 0.00 0.51 0.51 92 1013.2
20260505123834 13 6 0.0 0.0 0.00 0.51 0.51 92 1013.1
20260505123330 13 7 0.0 1.6 0.00 0.51 0.51 91 1012.9
20260505122826 13 8 0.0 0.0 0.00 0.51 0.51 91 1012.8
20260505122324 13 3 0.0 1.6 0.00 0.51 0.51 91 1012.8
20260505121820 13 27 1.6 3.2 0.00 0.51 0.51 92 1012.8
20260505121318 13 30 3.2 3.2 0.00 0.51 0.51 92 1012.3
20260505120814 13 2 0.0 0.0 0.18 0.51 0.51 92 1012.6
20260505120310 13 336 0.0 1.6 0.18 0.51 0.51 91 1012.7
20260505115808 13 25 0.0 3.2 0.00 0.48 0.48 90 1012.6
20260505115306 13 30 1.6 4.8 0.00 0.48 0.48 89 1012.6
20260505114804 13 7 0.0 1.6 0.00 0.48 0.48 88 1012.6
20260505114300 13 20 1.6 8.0 0.00 0.48 0.48 88 1012.5
20260505113756 13 39 4.8 8.0 0.00 0.48 0.48 89 1012.3
20260505113253 13 56 3.2 4.8 0.00 0.48 0.48 89 1013.1
20260505112748 13 61 1.6 4.8 0.00 0.48 0.48 90 1013.1
20260505112246 13 48 1.6 4.8 0.00 0.48 0.48 90 1012.9
20260505111741 13 42 3.2 4.8 0.13 0.48 0.48 89 1012.7
20260505111237 13 83 8.0 9.7 0.13 0.48 0.48 91 1012.7
20260505110733 13 43 3.2 8.0 0.00 0.46 0.46 91 1012.8
20260505110231 13 27 1.6 8.0 0.00 0.46 0.46 90 1012.8
20260505102207 13 74 6.4 9.7 0.18 0.43 0.43 93 1013.7
20260505101705 13 51 4.8 8.0 0.00 0.41 0.41 93 1013.9
20260505101201 13 48 4.8 8.0 0.00 0.41 0.41 93 1014.0
20260505100657 13 78 8.0 11.3 0.00 0.41 0.41 93 1014.0
20260505100154 13 43 4.8 4.8 0.00 0.41 0.41 93 1014.3
20260505095650 13 73 4.8 9.7 0.00 0.41 0.41 93 1014.4
20260505095148 13 36 3.2 8.0 0.00 0.41 0.41 94 1014.3
20260505094643 13 89 6.4 9.7 0.13 0.41 0.41 94 1014.3
20260505094140 13 120 4.8 8.0 0.30 0.41 0.41 94 1014.0
20260505093636 13 33 4.8 9.7 0.30 0.38 0.38 94 1014.0
20260505093134 13 87 8.0 16.1 0.13 0.36 0.36 94 1014.3
20260505092630 13 72 11.3 14.5 0.18 0.33 0.33 94 1014.8
20260505092129 13 83 4.8 14.5 0.18 0.33 0.33 93 1014.7
20260505091625 13 85 14.5 17.7 0.00 0.30 0.30 93 1014.5
20260505091124 13 109 11.3 16.1 0.13 0.30 0.30 93 1014.6
20260505090621 13 85 14.5 24.1 0.13 0.30 0.30 93 1014.4
20260505090119 13 108 9.7 17.7 0.00 0.28 0.28 92 1015.0
20260505085616 13 93 9.7 12.9 0.00 0.28 0.28 92 1014.7
20260505085115 13 70 11.3 12.9 0.00 0.28 0.28 92 1014.8
20260505084612 13 58 4.8 9.7 0.18 0.28 0.28 92 1015.0
20260505084110 13 82 4.8 11.3 0.18 0.28 0.28 92 1015.3
20260505083608 13 71 4.8 9.7 0.00 0.25 0.25 92 1015.6
20260505083104 13 47 4.8 8.0 0.13 0.25 0.25 92 1015.9
20260505082559 13 44 1.6 4.8 0.13 0.25 0.25 92 1015.9
20260505082057 13 70 1.6 4.8 0.00 0.23 0.23 92 1015.8
20260505081553 13 56 4.8 8.0 0.18 0.23 0.23 92 1015.9
20260505081050 13 52 4.8 4.8 0.18 0.23 0.23 92 1016.0
20260505080546 13 52 1.6 4.8 0.13 0.20 0.20 92 1016.0
20260505080043 13 27 1.6 3.2 0.18 0.18 0.18 92 1016.5
20260505075539 13 73 3.2 3.2 0.18 0.15 0.15 93 1016.4
20260505075036 13 44 1.6 3.2 0.18 0.15 0.15 93 1016.6
20260505074533 13 4 0.0 0.0 0.13 0.13 0.13 93 1017.0
20260505074030 13 12 0.0 1.6 0.30 0.13 0.13 93 1016.9
20260505073527 13 34 3.2 4.8 0.18 0.10 0.10 93 1017.0
20260505073026 13 14 4.8 4.8 0.13 0.08 0.08 93 1016.6
20260505072521 13 17 4.8 9.7 0.13 0.08 0.08 93 1016.8
20260505072018 14 4 4.8 4.8 0.18 0.05 0.05 93 1016.8
20260505071513 14 5 0.0 0.0 0.18 0.05 0.05 93 1016.5
20260505071012 13 20 1.6 3.2 0.13 0.03 0.03 93 1016.5
20260505070509 14 1 0.0 0.0 0.30 0.03 0.03 93 1016.6
20260505070005 14 4 0.0 0.0 0.30 1.35 1.35 93 1016.8
20260505065501 14 1 0.0 0.0 0.13 1.32 1.32 93 1016.2
20260505064957 14 356 0.0 0.0 0.00 1.30 1.30 92 1016.4
20260505064454 14 7 0.0 0.0 0.18 1.30 1.30 92 1016.4
20260505063953 13 6 1.6 1.6 0.18 1.30 1.30 91 1016.2
20260505063449 13 9 1.6 3.2 0.30 1.27 1.27 91 1016.2
20260505062945 13 25 4.8 4.8 0.61 1.27 1.27 91 1016.3
20260505062442 13 19 3.2 4.8 0.61 1.22 1.22 91 1016.3
20260505061939 13 40 4.8 4.8 0.61 1.17 1.17 92 1016.5
20260505061437 13 12 1.6 3.2 0.61 1.12 1.12 91 1016.3
20260505060935 13 354 0.0 1.6 0.61 1.07 1.07 91 1016.4
20260505060432 13 13 3.2 4.8 0.48 1.02 1.02 91 1016.4
20260505055928 13 3 0.0 1.6 0.30 0.97 0.97 91 1016.5
20260505055424 13 35 1.6 3.2 0.43 0.94 0.94 91 1016.5
20260505054921 13 39 1.6 4.8 0.30 0.89 0.89 90 1016.2
20260505054418 13 35 1.6 3.2 0.48 0.86 0.86 90 1016.2
20260505053916 13 25 3.2 4.8 0.48 0.84 0.84 90 1016.2
20260505053413 14 2 3.2 3.2 0.48 0.79 0.79 90 1016.4
20260505052910 14 3 1.6 1.6 0.43 0.76 0.76 90 1016.5
20260505052406 14 20 3.2 3.2 0.13 0.71 0.71 89 1016.4
20260505051904 14 338 0.0 1.6 0.18 0.69 0.69 88 1016.3
20260505051401 14 18 3.2 3.2 0.18 0.69 0.69 87 1016.1
20260505050859 14 21 1.6 3.2 0.00 0.66 0.66 87 1016.1
20260505050357 14 28 1.6 1.6 0.13 0.66 0.66 85 1016.1
20260505041325 15 11 0.0 3.2 0.18 0.58 0.58 86 1016.3
20260505040821 15 339 1.6 3.2 0.00 0.56 0.56 84 1016.5
20260505040319 15 356 1.6 3.2 0.00 0.56 0.56 82 1016.6
20260505035816 15 7 1.6 3.2 0.00 0.56 0.56 80 1016.3
20260505035311 16 4 1.6 3.2 0.00 0.56 0.56 76 1016.1
20260505034809 16 288 3.2 3.2 0.00 0.56 0.56 69 1015.9